Time,TemperatureF,DewpointF,PressureIn,WindDirection,WindDirectionDegrees,WindSpeedMPH,WindSpeedGustMPH,Humidity,HourlyPrecipIn,Conditions,Clouds,dailyrainin,SoftwareType,DateUTC
2013-09-29 00:01:00,48.2,43.9,29.85,South,180,2.9,3.1,85,0.00,,,0.00,WUHU216HW,2013-09-29 05:01:00,
2013-09-29 00:06:00,48.2,44.3,29.86,SSW,203,2.9,3.1,86,0.00,,,0.00,WUHU216HW,2013-09-29 05:06:00,
2013-09-29 00:11:00,48.2,44.9,29.86,SSW,203,2.7,3.1,88,0.00,,,0.00,WUHU216HW,2013-09-29 05:11:00,
2013-09-29 00:16:00,48.2,45.2,29.86,SSW,203,2.9,3.1,89,0.00,,,0.00,WUHU216HW,2013-09-29 05:16:00,
2013-09-29 00:21:00,48.1,45.0,29.86,SSW,203,2.7,3.4,89,0.00,,,0.00,WUHU216HW,2013-09-29 05:21:00,
2013-09-29 00:26:00,47.9,44.6,29.86,South,180,2.7,3.4,88,0.00,,,0.00,WUHU216HW,2013-09-29 05:26:00,
2013-09-29 00:31:00,47.9,44.6,29.85,South,180,2.5,3.1,88,0.00,,,0.00,WUHU216HW,2013-09-29 05:31:00,
2013-09-29 00:36:00,47.7,44.0,29.85,South,180,3.8,3.8,87,0.00,,,0.00,WUHU216HW,2013-09-29 05:36:00,
2013-09-29 00:41:00,47.5,43.8,29.85,South,180,3.4,3.8,87,0.00,,,0.00,WUHU216HW,2013-09-29 05:41:00,
2013-09-29 00:46:00,47.5,44.2,29.85,SSW,203,4.0,4.0,88,0.00,,,0.00,WUHU216HW,2013-09-29 05:46:00,
2013-09-29 00:51:00,47.5,43.8,29.86,SSW,203,4.7,4.9,87,0.00,,,0.00,WUHU216HW,2013-09-29 05:51:00,
2013-09-29 00:56:00,47.9,43.9,29.86,SSW,203,4.5,4.9,86,0.00,,,0.00,WUHU216HW,2013-09-29 05:56:00,
2013-09-29 01:01:00,47.9,43.6,29.86,SSW,203,4.0,4.7,85,0.00,,,0.00,WUHU216HW,2013-09-29 06:01:00,
2013-09-29 01:06:00,47.9,43.6,29.86,SSW,203,4.5,4.7,85,0.00,,,0.00,WUHU216HW,2013-09-29 06:06:00,
2013-09-29 01:11:00,47.9,43.6,29.86,SSW,203,5.4,5.4,85,0.00,,,0.00,WUHU216HW,2013-09-29 06:11:00,
2013-09-29 01:16:00,48.1,43.5,29.86,SW,225,5.4,5.6,84,0.00,,,0.00,WUHU216HW,2013-09-29 06:16:00,
2013-09-29 01:21:00,48.2,43.6,29.86,SW,225,6.3,6.3,84,0.00,,,0.00,WUHU216HW,2013-09-29 06:21:00,
2013-09-29 01:26:00,48.2,43.3,29.86,SSW,203,6.0,6.3,83,0.00,,,0.00,WUHU216HW,2013-09-29 06:26:00,
2013-09-29 01:32:00,48.2,43.3,29.87,SSW,203,6.0,6.3,83,0.00,,,0.00,WUHU216HW,2013-09-29 06:32:00,
2013-09-29 01:37:00,48.2,43.3,29.86,SSW,203,6.5,6.5,83,0.00,,,0.00,WUHU216HW,2013-09-29 06:37:00,
2013-09-29 01:42:00,48.4,43.5,29.87,SSW,203,8.1,8.1,83,0.00,,,0.00,WUHU216HW,2013-09-29 06:42:00,
2013-09-29 01:47:00,48.4,43.5,29.87,SSW,203,7.4,8.1,83,0.00,,,0.00,WUHU216HW,2013-09-29 06:47:00,
2013-09-29 01:52:00,48.2,43.3,29.87,SSW,203,6.0,7.4,83,0.00,,,0.00,WUHU216HW,2013-09-29 06:52:00,
2013-09-29 02:00:00,48.1,43.1,29.87,South,180,5.4,6.9,83,0.00,,,0.00,WUHU216HW,2013-09-29 07:00:00,
2013-09-29 02:05:00,47.9,42.9,29.86,SSW,203,4.9,6.3,83,0.00,,,0.00,WUHU216HW,2013-09-29 07:05:00,
2013-09-29 02:10:00,47.9,42.9,29.86,South,180,3.1,5.6,83,0.00,,,0.00,WUHU216HW,2013-09-29 07:10:00,
2013-09-29 02:15:00,47.5,42.9,29.86,SSW,203,4.3,4.7,84,0.00,,,0.00,WUHU216HW,2013-09-29 07:15:00,
2013-09-29 02:20:00,47.2,42.6,29.86,SSW,203,4.7,4.7,84,0.00,,,0.00,WUHU216HW,2013-09-29 07:20:00,
2013-09-29 02:25:00,47.3,43.0,29.86,SSW,203,5.6,5.6,85,0.00,,,0.00,WUHU216HW,2013-09-29 07:25:00,
2013-09-29 02:31:00,47.5,43.2,29.86,SSW,203,5.4,5.6,85,0.00,,,0.00,WUHU216HW,2013-09-29 07:31:00,
2013-09-29 02:36:00,47.7,43.1,29.86,SSW,203,5.1,5.4,84,0.00,,,0.00,WUHU216HW,2013-09-29 07:36:00,
2013-09-29 02:41:00,47.7,42.8,29.86,SSW,203,5.6,5.6,83,0.00,,,0.00,WUHU216HW,2013-09-29 07:41:00,
2013-09-29 02:46:00,47.7,42.8,29.86,SSW,203,5.8,6.3,83,0.00,,,0.00,WUHU216HW,2013-09-29 07:46:00,
2013-09-29 02:51:00,47.7,42.8,29.85,SSW,203,5.4,6.3,83,0.00,,,0.00,WUHU216HW,2013-09-29 07:51:00,
2013-09-29 02:56:00,47.7,42.8,29.86,SSW,203,5.4,5.8,83,0.00,,,0.00,WUHU216HW,2013-09-29 07:56:00,
2013-09-29 03:01:00,47.7,42.8,29.85,SSW,203,4.7,5.4,83,0.00,,,0.00,WUHU216HW,2013-09-29 08:01:00,
2013-09-29 03:06:00,47.9,42.9,29.86,SSW,203,4.9,5.1,83,0.00,,,0.00,WUHU216HW,2013-09-29 08:06:00,
2013-09-29 03:11:00,47.9,42.7,29.86,SW,225,4.7,5.6,82,0.00,,,0.00,WUHU216HW,2013-09-29 08:11:00,
2013-09-29 03:16:00,47.7,42.5,29.86,SW,225,4.7,5.6,82,0.00,,,0.00,WUHU216HW,2013-09-29 08:16:00,
2013-09-29 03:21:00,47.5,42.3,29.86,SW,225,4.5,5.4,82,0.00,,,0.00,WUHU216HW,2013-09-29 08:21:00,
2013-09-29 03:26:00,47.5,42.6,29.85,SSW,203,4.5,5.1,83,0.00,,,0.00,WUHU216HW,2013-09-29 08:26:00,
2013-09-29 03:31:00,47.3,42.5,29.86,SSW,203,4.9,5.4,83,0.00,,,0.00,WUHU216HW,2013-09-29 08:31:00,
2013-09-29 03:36:00,47.5,42.6,29.85,SSW,203,5.6,5.6,83,0.00,,,0.00,WUHU216HW,2013-09-29 08:36:00,
2013-09-29 03:41:00,47.7,42.5,29.85,SSW,203,6.0,6.3,82,0.00,,,0.00,WUHU216HW,2013-09-29 08:41:00,
2013-09-29 03:46:00,47.5,42.3,29.85,SW,225,4.7,6.3,82,0.00,,,0.00,WUHU216HW,2013-09-29 08:46:00,
2013-09-29 03:51:00,47.3,42.1,29.85,SW,225,4.0,5.4,82,0.00,,,0.00,WUHU216HW,2013-09-29 08:51:00,
2013-09-29 03:56:00,47.2,42.3,29.85,SSW,203,3.4,4.3,83,0.00,,,0.00,WUHU216HW,2013-09-29 08:56:00,
2013-09-29 04:01:00,47.0,42.1,29.85,SW,225,3.4,4.0,83,0.00,,,0.00,WUHU216HW,2013-09-29 09:01:00,
2013-09-29 04:06:00,46.8,42.0,29.86,SW,225,4.0,4.3,83,0.00,,,0.00,WUHU216HW,2013-09-29 09:06:00,
2013-09-29 04:11:00,47.0,42.1,29.85,SW,225,5.4,5.4,83,0.00,,,0.00,WUHU216HW,2013-09-29 09:11:00,
2013-09-29 04:16:00,47.0,42.1,29.86,SW,225,3.4,5.4,83,0.00,,,0.00,WUHU216HW,2013-09-29 09:16:00,
2013-09-29 04:21:00,47.2,42.3,29.86,SW,225,3.8,4.5,83,0.00,,,0.00,WUHU216HW,2013-09-29 09:21:00,
2013-09-29 04:26:00,47.0,41.8,29.86,SW,225,3.8,4.0,82,0.00,,,0.00,WUHU216HW,2013-09-29 09:26:00,
2013-09-29 04:31:00,46.8,42.0,29.86,SW,225,3.4,4.0,83,0.00,,,0.00,WUHU216HW,2013-09-29 09:31:00,
2013-09-29 04:36:00,46.8,42.0,29.86,SW,225,3.4,3.6,83,0.00,,,0.00,WUHU216HW,2013-09-29 09:36:00,
2013-09-29 04:41:00,46.6,41.8,29.86,SW,225,4.3,4.3,83,0.00,,,0.00,WUHU216HW,2013-09-29 09:41:00,
2013-09-29 04:46:00,46.6,41.8,29.86,SW,225,4.3,4.3,83,0.00,,,0.00,WUHU216HW,2013-09-29 09:46:00,
2013-09-29 05:00:00,46.4,41.6,29.86,SW,225,3.1,3.1,83,0.00,,,0.00,WUHU216HW,2013-09-29 10:00:00,
2013-09-29 05:05:00,46.3,41.8,29.85,SSW,203,4.3,4.3,84,0.00,,,0.00,WUHU216HW,2013-09-29 10:05:00,
2013-09-29 05:10:00,46.4,42.0,29.86,SW,225,2.7,4.3,84,0.00,,,0.00,WUHU216HW,2013-09-29 10:10:00,
2013-09-29 05:15:00,46.4,41.6,29.86,SW,225,2.5,3.8,83,0.00,,,0.00,WUHU216HW,2013-09-29 10:15:00,
2013-09-29 05:20:00,46.4,42.0,29.86,SW,225,3.4,3.4,84,0.00,,,0.00,WUHU216HW,2013-09-29 10:20:00,
2013-09-29 05:25:00,46.3,41.4,29.86,WSW,248,2.7,3.4,83,0.00,,,0.00,WUHU216HW,2013-09-29 10:25:00,
2013-09-29 05:30:00,46.3,41.4,29.86,WSW,248,3.6,3.6,83,0.00,,,0.00,WUHU216HW,2013-09-29 10:30:00,
2013-09-29 05:35:00,46.3,41.4,29.86,SW,225,3.4,3.6,83,0.00,,,0.00,WUHU216HW,2013-09-29 10:35:00,
2013-09-29 05:40:00,46.1,41.2,29.86,SW,225,2.7,3.6,83,0.00,,,0.00,WUHU216HW,2013-09-29 10:40:00,
2013-09-29 05:45:00,46.1,41.2,29.86,SW,225,3.1,3.4,83,0.00,,,0.00,WUHU216HW,2013-09-29 10:45:00,
2013-09-29 05:50:00,46.1,41.2,29.86,SW,225,2.7,4.5,83,0.00,,,0.00,WUHU216HW,2013-09-29 10:50:00,
2013-09-29 05:55:00,46.1,41.2,29.86,WSW,248,2.5,4.5,83,0.00,,,0.00,WUHU216HW,2013-09-29 10:55:00,
2013-09-29 06:00:00,46.1,41.2,29.86,WSW,248,2.7,3.1,83,0.00,,,0.00,WUHU216HW,2013-09-29 11:00:00,
2013-09-29 06:05:00,46.3,41.4,29.86,SW,225,2.5,3.1,83,0.00,,,0.00,WUHU216HW,2013-09-29 11:05:00,
2013-09-29 06:10:00,46.3,41.4,29.86,SSW,203,3.4,3.4,83,0.00,,,0.00,WUHU216HW,2013-09-29 11:10:00,
2013-09-29 06:15:00,46.3,41.4,29.86,SSW,203,2.5,3.8,83,0.00,,,0.00,WUHU216HW,2013-09-29 11:15:00,
2013-09-29 06:20:00,46.1,41.2,29.86,SW,225,3.6,3.8,83,0.00,,,0.00,WUHU216HW,2013-09-29 11:20:00,
2013-09-29 06:25:00,46.1,41.2,29.86,SSW,203,3.1,3.6,83,0.00,,,0.00,WUHU216HW,2013-09-29 11:25:00,
2013-09-29 06:30:00,46.1,41.2,29.86,SSW,203,3.6,3.6,83,0.00,,,0.00,WUHU216HW,2013-09-29 11:30:00,
2013-09-29 06:35:00,46.1,41.2,29.87,SSW,203,3.8,3.8,83,0.00,,,0.00,WUHU216HW,2013-09-29 11:35:00,
2013-09-29 06:40:00,46.1,41.2,29.87,SW,225,2.9,3.8,83,0.00,,,0.00,WUHU216HW,2013-09-29 11:40:00,
2013-09-29 06:45:00,46.1,41.2,29.87,SSW,203,2.7,3.8,83,0.00,,,0.00,WUHU216HW,2013-09-29 11:45:00,
2013-09-29 06:50:00,46.1,41.2,29.87,SSW,203,4.3,4.3,83,0.00,,,0.00,WUHU216HW,2013-09-29 11:50:00,
2013-09-29 06:55:00,46.1,41.2,29.86,SSW,203,4.7,5.1,83,0.00,,,0.00,WUHU216HW,2013-09-29 11:55:00,
2013-09-29 07:00:00,46.1,41.2,29.86,SSW,203,4.9,5.1,83,0.00,,,0.00,WUHU216HW,2013-09-29 12:00:00,
2013-09-29 07:05:00,45.9,41.0,29.87,SSW,203,4.9,5.4,83,0.00,,,0.00,WUHU216HW,2013-09-29 12:05:00,
2013-09-29 07:10:00,45.7,41.2,29.87,SSW,203,4.9,5.4,84,0.00,,,0.00,WUHU216HW,2013-09-29 12:10:00,
2013-09-29 07:15:00,45.7,40.9,29.87,SW,225,4.7,4.9,83,0.00,,,0.00,WUHU216HW,2013-09-29 12:15:00,
2013-09-29 07:20:00,45.5,41.1,29.87,SSW,203,4.0,4.9,84,0.00,,,0.00,WUHU216HW,2013-09-29 12:20:00,
2013-09-29 07:25:00,45.5,41.1,29.87,SSW,203,4.0,4.7,84,0.00,,,0.00,WUHU216HW,2013-09-29 12:25:00,
2013-09-29 07:30:00,45.7,41.2,29.87,SSW,203,4.3,4.7,84,0.00,,,0.00,WUHU216HW,2013-09-29 12:30:00,
2013-09-29 07:35:00,45.7,40.9,29.87,SSW,203,4.7,5.4,83,0.00,,,0.00,WUHU216HW,2013-09-29 12:35:00,
2013-09-29 07:40:00,45.9,41.0,29.87,SSW,203,4.0,5.4,83,0.00,,,0.00,WUHU216HW,2013-09-29 12:40:00,
2013-09-29 07:45:00,46.1,41.2,29.87,SSW,203,3.6,4.3,83,0.00,,,0.00,WUHU216HW,2013-09-29 12:45:00,
2013-09-29 07:50:00,46.4,41.6,29.87,SSW,203,2.9,3.6,83,0.00,,,0.00,WUHU216HW,2013-09-29 12:50:00,
2013-09-29 07:55:00,46.4,41.6,29.87,South,180,1.8,3.4,83,0.00,,,0.00,WUHU216HW,2013-09-29 12:55:00,
2013-09-29 08:00:00,47.7,42.8,29.87,SSW,203,2.0,2.9,83,0.00,,,0.00,WUHU216HW,2013-09-29 13:00:00,
2013-09-29 08:05:00,49.9,43.9,29.87,SSW,203,3.4,3.4,80,0.00,,,0.00,WUHU216HW,2013-09-29 13:05:00,
2013-09-29 08:10:00,51.5,44.2,29.87,South,180,4.7,4.7,76,0.00,,,0.00,WUHU216HW,2013-09-29 13:10:00,
2013-09-29 08:15:00,52.0,43.3,29.87,SSW,203,4.7,5.4,72,0.00,,,0.00,WUHU216HW,2013-09-29 13:15:00,
2013-09-29 08:20:00,52.2,43.5,29.87,SSW,203,5.4,5.4,72,0.00,,,0.00,WUHU216HW,2013-09-29 13:20:00,
2013-09-29 08:25:00,52.2,43.5,29.87,SSW,203,5.4,5.4,72,0.00,,,0.00,WUHU216HW,2013-09-29 13:25:00,
2013-09-29 08:46:00,55.1,45.1,29.87,SSW,203,6.7,6.7,69,0.00,,,0.00,WUHU216HW,2013-09-29 13:46:00,
2013-09-29 08:51:00,55.6,45.3,29.87,South,180,6.5,8.1,68,0.00,,,0.00,WUHU216HW,2013-09-29 13:51:00,
2013-09-29 08:56:00,56.0,46.0,29.87,South,180,7.4,8.1,69,0.00,,,0.00,WUHU216HW,2013-09-29 13:56:00,
2013-09-29 09:01:00,56.7,46.3,29.87,South,180,6.9,7.6,68,0.00,,,0.00,WUHU216HW,2013-09-29 14:01:00,
2013-09-29 09:06:00,57.2,46.4,29.87,SSW,203,6.7,7.6,67,0.00,,,0.00,WUHU216HW,2013-09-29 14:06:00,
2013-09-29 09:11:00,58.1,46.0,29.87,South,180,7.6,8.7,64,0.00,,,0.00,WUHU216HW,2013-09-29 14:11:00,
2013-09-29 09:16:00,58.0,45.8,29.87,SSW,203,6.9,8.7,64,0.00,,,0.00,WUHU216HW,2013-09-29 14:16:00,
2013-09-29 09:21:00,57.2,45.5,29.87,SSW,203,6.5,7.2,65,0.00,,,0.00,WUHU216HW,2013-09-29 14:21:00,
2013-09-29 09:26:00,57.4,46.1,29.87,SSW,203,6.0,7.2,66,0.00,,,0.00,WUHU216HW,2013-09-29 14:26:00,
2013-09-29 09:31:00,57.2,45.9,29.87,South,180,6.3,7.4,66,0.00,,,0.00,WUHU216HW,2013-09-29 14:31:00,
2013-09-29 09:36:00,58.0,46.6,29.87,SSW,203,8.3,8.3,66,0.00,,,0.00,WUHU216HW,2013-09-29 14:36:00,
2013-09-29 09:41:00,58.9,47.1,29.87,SSW,203,7.2,8.7,65,0.00,,,0.00,WUHU216HW,2013-09-29 14:41:00,
2013-09-29 09:46:00,59.9,46.9,29.87,SW,225,6.7,8.7,62,0.00,,,0.00,WUHU216HW,2013-09-29 14:46:00,
2013-09-29 09:51:00,60.5,47.9,29.87,SSW,203,6.7,8.5,63,0.00,,,0.00,WUHU216HW,2013-09-29 14:51:00,
2013-09-29 09:56:00,61.0,48.0,29.87,South,180,6.0,8.5,62,0.00,,,0.00,WUHU216HW,2013-09-29 14:56:00,
2013-09-29 10:01:00,63.0,48.4,29.87,South,180,5.6,8.1,59,0.00,,,0.00,WUHU216HW,2013-09-29 15:01:00,
2013-09-29 10:06:00,63.7,47.6,29.87,South,180,5.4,8.7,56,0.00,,,0.00,WUHU216HW,2013-09-29 15:06:00,
2013-09-29 10:11:00,64.1,47.4,29.87,SSW,203,6.3,8.7,55,0.00,,,0.00,WUHU216HW,2013-09-29 15:11:00,
2013-09-29 10:16:00,65.2,47.5,29.87,SSE,158,5.6,7.2,53,0.00,,,0.00,WUHU216HW,2013-09-29 15:16:00,
2013-09-29 10:21:00,65.5,47.9,29.86,South,180,6.0,6.9,53,0.00,,,0.00,WUHU216HW,2013-09-29 15:21:00,
2013-09-29 10:26:00,66.1,47.4,29.87,SSW,203,4.3,6.9,51,0.00,,,0.00,WUHU216HW,2013-09-29 15:26:00,
2013-09-29 10:31:00,65.9,47.8,29.87,South,180,5.8,8.5,52,0.00,,,0.00,WUHU216HW,2013-09-29 15:31:00,
2013-09-29 10:36:00,65.5,46.9,29.86,South,180,7.4,8.5,51,0.00,,,0.00,WUHU216HW,2013-09-29 15:36:00,
2013-09-29 10:41:00,65.7,48.1,29.87,SSW,203,9.8,9.8,53,0.00,,,0.00,WUHU216HW,2013-09-29 15:41:00,
2013-09-29 10:46:00,66.4,48.3,29.87,SSW,203,7.6,9.8,52,0.00,,,0.00,WUHU216HW,2013-09-29 15:46:00,
2013-09-29 10:51:00,67.0,48.3,29.86,South,180,9.8,9.8,51,0.00,,,0.00,WUHU216HW,2013-09-29 15:51:00,
2013-09-29 10:56:00,66.4,46.7,29.86,SSW,203,9.8,12.1,49,0.00,,,0.00,WUHU216HW,2013-09-29 15:56:00,
2013-09-29 11:01:00,67.0,48.3,29.86,SSW,203,7.4,12.1,51,0.00,,,0.00,WUHU216HW,2013-09-29 16:01:00,
2013-09-29 11:06:00,67.7,47.3,29.86,South,180,9.8,10.5,48,0.00,,,0.00,WUHU216HW,2013-09-29 16:06:00,
2013-09-29 11:11:00,67.9,47.4,29.85,SSE,158,9.8,9.8,48,0.00,,,0.00,WUHU216HW,2013-09-29 16:11:00,
2013-09-29 11:16:00,68.4,47.4,29.86,South,180,7.6,9.8,47,0.00,,,0.00,WUHU216HW,2013-09-29 16:16:00,
2013-09-29 11:21:00,68.8,47.6,29.85,SSW,203,9.8,10.3,47,0.00,,,0.00,WUHU216HW,2013-09-29 16:21:00,
2013-09-29 11:26:00,69.1,48.6,29.85,SSW,203,5.6,10.3,48,0.00,,,0.00,WUHU216HW,2013-09-29 16:26:00,
2013-09-29 11:31:00,69.5,48.3,29.85,South,180,11.9,11.9,47,0.00,,,0.00,WUHU216HW,2013-09-29 16:31:00,
2013-09-29 11:36:00,69.5,48.3,29.85,South,180,11.0,11.9,47,0.00,,,0.00,WUHU216HW,2013-09-29 16:36:00,
2013-09-29 11:41:00,69.8,48.1,29.85,SSW,203,11.6,12.8,46,0.00,,,0.00,WUHU216HW,2013-09-29 16:41:00,
2013-09-29 11:46:00,70.2,48.3,29.85,South,180,12.8,14.3,46,0.00,,,0.00,WUHU216HW,2013-09-29 16:46:00,
2013-09-29 11:51:00,70.4,49.2,29.85,SSE,158,8.3,14.3,47,0.00,,,0.00,WUHU216HW,2013-09-29 16:51:00,
2013-09-29 11:56:00,70.9,49.0,29.85,South,180,10.1,11.4,46,0.00,,,0.00,WUHU216HW,2013-09-29 16:56:00,
2013-09-29 12:01:00,70.4,47.9,29.85,South,180,9.2,12.8,45,0.00,,,0.00,WUHU216HW,2013-09-29 17:01:00,
2013-09-29 12:06:00,70.9,49.6,29.85,SSW,203,7.8,12.8,47,0.00,,,0.00,WUHU216HW,2013-09-29 17:06:00,
2013-09-29 12:11:00,71.6,48.4,29.84,SSW,203,7.4,13.4,44,0.00,,,0.00,WUHU216HW,2013-09-29 17:11:00,
2013-09-29 12:16:00,71.3,49.3,29.84,SE,135,7.4,13.4,46,0.00,,,0.00,WUHU216HW,2013-09-29 17:16:00,
2013-09-29 12:21:00,70.9,49.6,29.84,South,180,6.7,13.6,47,0.00,,,0.00,WUHU216HW,2013-09-29 17:21:00,
2013-09-29 12:26:00,72.5,49.9,29.84,South,180,7.6,13.6,45,0.00,,,0.00,WUHU216HW,2013-09-29 17:26:00,
2013-09-29 12:31:00,73.4,50.0,29.84,South,180,14.3,14.3,44,0.00,,,0.00,WUHU216HW,2013-09-29 17:31:00,
2013-09-29 12:36:00,73.1,48.0,29.84,South,180,6.7,14.3,41,0.00,,,0.00,WUHU216HW,2013-09-29 17:36:00,
2013-09-29 12:41:00,72.4,47.9,29.84,SSE,158,10.5,15.0,42,0.00,,,0.00,WUHU216HW,2013-09-29 17:41:00,
2013-09-29 12:46:00,72.4,49.2,29.83,South,180,11.2,15.0,44,0.00,,,0.00,WUHU216HW,2013-09-29 17:46:00,
2013-09-29 12:51:00,73.1,48.6,29.83,SSE,158,11.6,12.1,42,0.00,,,0.00,WUHU216HW,2013-09-29 17:51:00,
2013-09-29 12:56:00,73.1,48.6,29.83,SE,135,9.4,12.1,42,0.00,,,0.00,WUHU216HW,2013-09-29 17:56:00,
2013-09-29 13:01:00,73.3,50.0,29.82,SSE,158,12.1,12.1,44,0.00,,,0.00,WUHU216HW,2013-09-29 18:01:00,
2013-09-29 13:06:00,73.4,49.5,29.82,South,180,7.4,12.1,43,0.00,,,0.00,WUHU216HW,2013-09-29 18:06:00,
2013-09-29 13:11:00,74.7,49.4,29.81,SSE,158,8.1,13.4,41,0.00,,,0.00,WUHU216HW,2013-09-29 18:11:00,
2013-09-29 13:16:00,74.0,48.8,29.81,SE,135,10.5,13.4,41,0.00,,,0.00,WUHU216HW,2013-09-29 18:16:00,
2013-09-29 13:21:00,73.8,48.6,29.81,SSE,158,9.2,14.1,41,0.00,,,0.00,WUHU216HW,2013-09-29 18:21:00,
2013-09-29 13:26:00,74.0,48.8,29.81,SE,135,9.4,14.1,41,0.00,,,0.00,WUHU216HW,2013-09-29 18:26:00,
2013-09-29 13:32:00,74.0,48.8,29.81,SE,135,9.4,9.4,41,0.00,,,0.00,WUHU216HW,2013-09-29 18:32:00,
2013-09-29 13:52:00,76.0,47.7,29.79,South,180,20.4,20.4,37,0.00,,,0.00,WUHU216HW,2013-09-29 18:52:00,
2013-09-29 13:57:00,76.7,46.8,29.79,South,180,12.8,20.4,35,0.00,,,0.00,WUHU216HW,2013-09-29 18:57:00,
2013-09-29 14:02:00,77.2,46.5,29.79,South,180,11.9,20.4,34,0.00,,,0.00,WUHU216HW,2013-09-29 19:02:00,
2013-09-29 14:07:00,77.8,47.8,29.79,South,180,16.1,17.2,35,0.00,,,0.00,WUHU216HW,2013-09-29 19:07:00,
2013-09-29 14:12:00,77.6,46.9,29.78,SSE,158,11.4,16.1,34,0.00,,,0.00,WUHU216HW,2013-09-29 19:12:00,
2013-09-29 14:17:00,77.4,46.7,29.78,South,180,16.3,18.6,34,0.00,,,0.00,WUHU216HW,2013-09-29 19:17:00,
2013-09-29 14:22:00,77.0,45.6,29.78,SSE,158,24.6,24.6,33,0.00,,,0.00,WUHU216HW,2013-09-29 19:22:00,
2013-09-29 14:27:00,77.0,46.5,29.77,South,180,14.5,24.6,34,0.00,,,0.00,WUHU216HW,2013-09-29 19:27:00,
2013-09-29 14:32:00,77.6,46.1,29.77,SSE,158,20.1,20.1,33,0.00,,,0.00,WUHU216HW,2013-09-29 19:32:00,
2013-09-29 14:37:00,77.4,46.7,29.77,South,180,15.0,20.1,34,0.00,,,0.00,WUHU216HW,2013-09-29 19:37:00,
2013-09-29 14:42:00,77.2,45.8,29.77,South,180,22.4,22.4,33,0.00,,,0.00,WUHU216HW,2013-09-29 19:42:00,
2013-09-29 14:47:00,77.6,46.9,29.76,South,180,14.3,22.4,34,0.00,,,0.00,WUHU216HW,2013-09-29 19:47:00,
2013-09-29 14:48:00,77.9,47.2,29.76,SSE,158,17.2,22.4,34,0.00,,,0.00,WUHU216HW,2013-09-29 19:48:00,
2013-09-29 14:53:00,77.6,46.9,29.76,SSE,158,19.5,22.4,34,0.00,,,0.00,WUHU216HW,2013-09-29 19:53:00,
2013-09-29 14:58:00,77.8,47.0,29.76,South,180,15.0,22.4,34,0.00,,,0.00,WUHU216HW,2013-09-29 19:58:00,
2013-09-29 15:03:00,78.1,45.8,29.76,SSE,158,20.1,22.4,32,0.00,,,0.00,WUHU216HW,2013-09-29 20:03:00,
2013-09-29 15:08:00,78.1,47.4,29.76,South,180,14.1,20.1,34,0.00,,,0.00,WUHU216HW,2013-09-29 20:08:00,
2013-09-29 15:13:00,79.4,46.1,29.76,South,180,12.8,18.1,31,0.00,,,0.00,WUHU216HW,2013-09-29 20:13:00,
2013-09-29 15:18:00,78.7,45.5,29.76,South,180,21.3,23.0,31,0.00,,,0.00,WUHU216HW,2013-09-29 20:18:00,
2013-09-29 15:23:00,78.1,45.8,29.76,SSE,158,15.4,23.0,32,0.00,,,0.00,WUHU216HW,2013-09-29 20:23:00,
2013-09-29 15:28:00,78.5,46.1,29.76,South,180,19.0,22.4,32,0.00,,,0.00,WUHU216HW,2013-09-29 20:28:00,
2013-09-29 15:33:00,78.5,46.1,29.75,SSW,203,19.7,24.4,32,0.00,,,0.00,WUHU216HW,2013-09-29 20:33:00,
2013-09-29 15:38:00,78.8,44.8,29.75,South,180,22.1,26.2,30,0.00,,,0.00,WUHU216HW,2013-09-29 20:38:00,
2013-09-29 15:43:00,78.7,44.6,29.75,South,180,21.7,26.2,30,0.00,,,0.00,WUHU216HW,2013-09-29 20:43:00,
2013-09-29 15:47:00,79.2,45.9,29.75,SSW,203,21.7,21.7,31,0.00,,,0.00,WUHU216HW,2013-09-29 20:47:00,
2013-09-29 15:48:00,79.2,45.9,29.75,SSW,203,21.7,22.8,31,0.00,,,0.00,WUHU216HW,2013-09-29 20:48:00,
2013-09-29 15:53:00,79.2,45.9,29.75,SSW,203,21.7,21.7,31,0.00,,,0.00,WUHU216HW,2013-09-29 20:53:00,
2013-09-29 16:00:00,78.7,46.3,29.75,SSE,158,14.8,14.8,32,0.00,,,0.00,WUHU216HW,2013-09-29 21:00:00,
2013-09-29 16:05:00,79.2,45.9,29.75,South,180,18.6,20.1,31,0.00,,,0.00,WUHU216HW,2013-09-29 21:05:00,
2013-09-29 16:10:00,79.2,46.7,29.74,South,180,17.2,21.9,32,0.00,,,0.00,WUHU216HW,2013-09-29 21:10:00,
2013-09-29 16:15:00,79.6,46.3,29.74,SSE,158,17.9,21.9,31,0.00,,,0.00,WUHU216HW,2013-09-29 21:15:00,
2013-09-29 16:20:00,78.8,45.6,29.74,South,180,17.2,21.9,31,0.00,,,0.00,WUHU216HW,2013-09-29 21:20:00,
2013-09-29 16:25:00,78.5,45.3,29.74,South,180,20.6,23.3,31,0.00,,,0.00,WUHU216HW,2013-09-29 21:25:00,
2013-09-29 16:30:00,78.5,46.1,29.74,South,180,22.1,23.3,32,0.00,,,0.00,WUHU216HW,2013-09-29 21:30:00,
2013-09-29 16:35:00,78.3,45.9,29.74,SSE,158,17.2,26.4,32,0.00,,,0.00,WUHU216HW,2013-09-29 21:35:00,
2013-09-29 16:40:00,78.7,47.0,29.73,SSE,158,15.7,26.4,33,0.00,,,0.00,WUHU216HW,2013-09-29 21:40:00,
2013-09-29 16:45:00,77.9,46.4,29.73,SSE,158,18.8,20.8,33,0.00,,,0.00,WUHU216HW,2013-09-29 21:45:00,
2013-09-29 16:50:00,77.4,46.0,29.73,South,180,23.7,23.7,33,0.00,,,0.00,WUHU216HW,2013-09-29 21:50:00,
2013-09-29 16:55:00,77.4,46.0,29.73,South,180,17.2,23.7,33,0.00,,,0.00,WUHU216HW,2013-09-29 21:55:00,
2013-09-29 17:00:00,77.4,46.7,29.73,SSE,158,19.2,20.4,34,0.00,,,0.00,WUHU216HW,2013-09-29 22:00:00,
2013-09-29 17:05:00,77.2,46.5,29.72,SSE,158,20.1,20.1,34,0.00,,,0.00,WUHU216HW,2013-09-29 22:05:00,
2013-09-29 17:10:00,77.0,47.2,29.73,SSE,158,18.6,20.1,35,0.00,,,0.00,WUHU216HW,2013-09-29 22:10:00,
2013-09-29 17:15:00,76.7,46.8,29.73,SSE,158,15.4,19.7,35,0.00,,,0.00,WUHU216HW,2013-09-29 22:15:00,
2013-09-29 17:20:00,76.7,48.3,29.72,SE,135,13.2,18.6,37,0.00,,,0.00,WUHU216HW,2013-09-29 22:20:00,
2013-09-29 17:25:00,76.5,48.2,29.72,SSE,158,13.9,19.2,37,0.00,,,0.00,WUHU216HW,2013-09-29 22:25:00,
2013-09-29 17:30:00,76.3,48.1,29.72,SSE,158,16.3,19.2,37,0.00,,,0.00,WUHU216HW,2013-09-29 22:30:00,
2013-09-29 17:35:00,76.1,46.4,29.72,SE,135,17.7,18.8,35,0.00,,,0.00,WUHU216HW,2013-09-29 22:35:00,
2013-09-29 17:40:00,76.0,46.2,29.72,SE,135,16.3,17.7,35,0.00,,,0.00,WUHU216HW,2013-09-29 22:40:00,
2013-09-29 17:45:00,75.8,48.3,29.71,SSE,158,12.5,20.6,38,0.00,,,0.00,WUHU216HW,2013-09-29 22:45:00,
2013-09-29 17:50:00,75.6,47.3,29.71,SSE,158,14.8,20.6,37,0.00,,,0.00,WUHU216HW,2013-09-29 22:50:00,
2013-09-29 17:55:00,75.2,47.8,29.71,SSE,158,16.6,18.3,38,0.00,,,0.00,WUHU216HW,2013-09-29 22:55:00,
2013-09-29 18:00:00,75.1,46.9,29.71,SSE,158,16.3,20.1,37,0.00,,,0.00,WUHU216HW,2013-09-29 23:00:00,
2013-09-29 18:05:00,74.9,47.5,29.71,SSE,158,14.3,21.0,38,0.00,,,0.00,WUHU216HW,2013-09-29 23:05:00,
2013-09-29 18:10:00,74.7,47.4,29.71,SE,135,13.2,21.0,38,0.00,,,0.00,WUHU216HW,2013-09-29 23:10:00,
2013-09-29 18:15:00,74.7,47.4,29.71,SE,135,13.2,20.1,38,0.00,,,0.00,WUHU216HW,2013-09-29 23:15:00,
2013-09-29 18:38:00,72.7,46.3,29.71,SE,135,17.2,17.2,39,0.00,,,0.00,WUHU216HW,2013-09-29 23:38:00,
2013-09-29 18:43:00,72.5,46.2,29.71,SSE,158,15.0,18.6,39,0.00,,,0.00,WUHU216HW,2013-09-29 23:43:00,
2013-09-29 18:48:00,72.4,46.0,29.71,South,180,14.8,18.8,39,0.00,,,0.00,WUHU216HW,2013-09-29 23:48:00,
2013-09-29 18:53:00,71.8,46.3,29.71,SSE,158,16.3,18.8,40,0.00,,,0.00,WUHU216HW,2013-09-29 23:53:00,
2013-09-29 18:58:00,71.5,45.9,29.71,SSE,158,16.1,20.1,40,0.00,,,0.00,WUHU216HW,2013-09-29 23:58:00,
2013-09-29 19:03:00,71.3,45.7,29.71,SE,135,17.2,20.1,40,0.00,,,0.00,WUHU216HW,2013-09-30 00:03:00,
2013-09-29 19:08:00,70.9,46.0,29.71,SSE,158,18.3,19.2,41,0.00,,,0.00,WUHU216HW,2013-09-30 00:08:00,
2013-09-29 19:13:00,70.6,45.7,29.71,SE,135,14.3,19.2,41,0.00,,,0.00,WUHU216HW,2013-09-30 00:13:00,
2013-09-29 19:18:00,70.2,46.0,29.71,SSE,158,14.3,18.3,42,0.00,,,0.00,WUHU216HW,2013-09-30 00:18:00,
2013-09-29 19:23:00,69.8,46.3,29.71,SE,135,12.8,17.2,43,0.00,,,0.00,WUHU216HW,2013-09-30 00:23:00,
2013-09-29 19:28:00,69.5,45.9,29.71,SE,135,16.1,17.4,43,0.00,,,0.00,WUHU216HW,2013-09-30 00:28:00,
2013-09-29 19:33:00,69.8,46.3,29.71,SSE,158,15.0,17.4,43,0.00,,,0.00,WUHU216HW,2013-09-30 00:33:00,
2013-09-29 19:38:00,69.7,46.1,29.71,SSE,158,13.6,17.0,43,0.00,,,0.00,WUHU216HW,2013-09-30 00:38:00,
2013-09-29 19:43:00,69.7,46.1,29.71,SSE,158,13.6,13.6,43,0.00,,,0.00,WUHU216HW,2013-09-30 00:43:00,
2013-09-29 20:00:00,68.6,45.7,29.72,SE,135,11.6,11.6,44,0.00,,,0.00,WUHU216HW,2013-09-30 01:00:00,
2013-09-29 20:05:00,68.4,45.5,29.72,SSE,158,17.2,17.2,44,0.00,,,0.00,WUHU216HW,2013-09-30 01:05:00,
2013-09-29 20:10:00,68.0,45.8,29.72,SSE,158,15.4,18.1,45,0.00,,,0.00,WUHU216HW,2013-09-30 01:10:00,
2013-09-29 20:15:00,68.0,45.8,29.72,SSE,158,15.0,19.5,45,0.00,,,0.00,WUHU216HW,2013-09-30 01:15:00,
2013-09-29 20:20:00,67.7,46.1,29.72,SE,135,12.8,19.5,46,0.00,,,0.00,WUHU216HW,2013-09-30 01:20:00,
2013-09-29 20:25:00,67.3,45.7,29.72,SSE,158,15.2,17.0,46,0.00,,,0.00,WUHU216HW,2013-09-30 01:25:00,
2013-09-29 20:30:00,67.3,45.7,29.72,SSE,158,15.0,17.0,46,0.00,,,0.00,WUHU216HW,2013-09-30 01:30:00,
2013-09-29 20:35:00,67.1,46.2,29.72,SE,135,15.7,17.0,47,0.00,,,0.00,WUHU216HW,2013-09-30 01:35:00,
2013-09-29 20:40:00,67.0,46.0,29.72,SSE,158,18.8,19.7,47,0.00,,,0.00,WUHU216HW,2013-09-30 01:40:00,
2013-09-29 20:45:00,66.6,46.3,29.72,SE,135,15.9,19.7,48,0.00,,,0.00,WUHU216HW,2013-09-30 01:45:00,
2013-09-29 20:50:00,66.6,46.3,29.72,SSE,158,14.5,17.2,48,0.00,,,0.00,WUHU216HW,2013-09-30 01:50:00,
2013-09-29 20:55:00,66.2,46.0,29.72,SSE,158,17.2,17.4,48,0.00,,,0.00,WUHU216HW,2013-09-30 01:55:00,
2013-09-29 21:00:00,66.2,46.5,29.73,SSE,158,16.6,18.6,49,0.00,,,0.00,WUHU216HW,2013-09-30 02:00:00,
2013-09-29 21:05:00,65.9,46.2,29.73,SSE,158,12.5,18.6,49,0.00,,,0.00,WUHU216HW,2013-09-30 02:05:00,
2013-09-29 21:10:00,65.7,46.6,29.73,SSE,158,12.8,16.6,50,0.00,,,0.00,WUHU216HW,2013-09-30 02:10:00,
2013-09-29 21:15:00,65.5,46.4,29.73,South,180,14.1,17.0,50,0.00,,,0.00,WUHU216HW,2013-09-30 02:15:00,
2013-09-29 21:20:00,65.5,46.4,29.73,SSE,158,14.3,17.0,50,0.00,,,0.00,WUHU216HW,2013-09-30 02:20:00,
2013-09-29 21:25:00,65.3,46.3,29.73,SE,135,13.4,15.4,50,0.00,,,0.00,WUHU216HW,2013-09-30 02:25:00,
2013-09-29 21:30:00,65.2,46.1,29.73,SSE,158,13.2,13.4,50,0.00,,,0.00,WUHU216HW,2013-09-30 02:30:00,
2013-09-29 21:35:00,65.2,46.1,29.73,South,180,13.9,14.8,50,0.00,,,0.00,WUHU216HW,2013-09-30 02:35:00,
2013-09-29 21:40:00,65.3,46.3,29.73,South,180,14.5,18.6,50,0.00,,,0.00,WUHU216HW,2013-09-30 02:40:00,
2013-09-29 21:45:00,65.2,45.6,29.73,South,180,12.8,18.6,49,0.00,,,0.00,WUHU216HW,2013-09-30 02:45:00,
2013-09-29 21:50:00,65.2,46.1,29.73,SSE,158,9.2,12.8,50,0.00,,,0.00,WUHU216HW,2013-09-30 02:50:00,
2013-09-29 21:55:00,65.0,45.9,29.73,SSE,158,13.0,13.6,50,0.00,,,0.00,WUHU216HW,2013-09-30 02:55:00,
2013-09-29 22:00:00,65.2,46.1,29.73,South,180,11.4,15.0,50,0.00,,,0.00,WUHU216HW,2013-09-30 03:00:00,
2013-09-29 22:05:00,65.0,45.9,29.73,SSE,158,14.3,15.0,50,0.00,,,0.00,WUHU216HW,2013-09-30 03:05:00,
2013-09-29 22:10:00,65.2,46.1,29.73,SSE,158,10.3,16.3,50,0.00,,,0.00,WUHU216HW,2013-09-30 03:10:00,
2013-09-29 22:15:00,64.6,46.0,29.73,SSE,158,8.9,16.3,51,0.00,,,0.00,WUHU216HW,2013-09-30 03:15:00,
2013-09-29 22:20:00,64.3,45.7,29.73,SSE,158,10.5,14.3,51,0.00,,,0.00,WUHU216HW,2013-09-30 03:20:00,
2013-09-29 22:25:00,64.1,46.0,29.73,South,180,11.4,14.3,52,0.00,,,0.00,WUHU216HW,2013-09-30 03:25:00,
2013-09-29 22:30:00,64.1,46.0,29.73,South,180,15.4,15.4,52,0.00,,,0.00,WUHU216HW,2013-09-30 03:30:00,
2013-09-29 22:35:00,64.1,45.6,29.73,SSE,158,11.4,15.4,51,0.00,,,0.00,WUHU216HW,2013-09-30 03:35:00,
2013-09-29 22:40:00,64.1,46.0,29.73,SSE,158,12.5,15.7,52,0.00,,,0.00,WUHU216HW,2013-09-30 03:40:00,
2013-09-29 22:45:00,63.7,46.2,29.73,South,180,11.4,15.7,53,0.00,,,0.00,WUHU216HW,2013-09-30 03:45:00,
2013-09-29 22:50:00,63.7,46.2,29.73,South,180,10.1,17.9,53,0.00,,,0.00,WUHU216HW,2013-09-30 03:50:00,
2013-09-29 22:55:00,63.7,46.2,29.73,South,180,13.4,17.9,53,0.00,,,0.00,WUHU216HW,2013-09-30 03:55:00,
2013-09-29 23:00:00,63.7,46.2,29.72,South,180,14.5,16.8,53,0.00,,,0.00,WUHU216HW,2013-09-30 04:00:00,
2013-09-29 23:01:00,63.7,46.2,29.72,SSE,158,12.8,16.8,53,0.00,,,0.00,WUHU216HW,2013-09-30 04:01:00,
2013-09-29 23:06:00,63.5,46.0,29.72,SSE,158,12.3,17.7,53,0.00,,,0.00,WUHU216HW,2013-09-30 04:06:00,
2013-09-29 23:11:00,63.5,46.0,29.72,South,180,13.6,17.7,53,0.00,,,0.00,WUHU216HW,2013-09-30 04:11:00,
2013-09-29 23:16:00,63.5,46.0,29.72,South,180,13.6,13.9,53,0.00,,,0.00,WUHU216HW,2013-09-30 04:16:00,
2013-09-29 23:39:00,63.0,46.0,29.72,South,180,10.7,10.7,54,0.00,,,0.00,WUHU216HW,2013-09-30 04:39:00,
2013-09-29 23:44:00,62.8,46.4,29.72,South,180,9.4,11.0,55,0.00,,,0.00,WUHU216HW,2013-09-30 04:44:00,
2013-09-29 23:49:00,62.6,46.2,29.72,South,180,10.5,11.0,55,0.00,,,0.00,WUHU216HW,2013-09-30 04:49:00,
2013-09-29 23:54:00,62.5,46.5,29.71,South,180,8.1,13.9,56,0.00,,,0.00,WUHU216HW,2013-09-30 04:54:00,
2013-09-29 23:59:00,62.5,46.5,29.71,South,180,9.8,16.1,56,0.00,,,0.00,WUHU216HW,2013-09-30 04:59:00,